THOR ABLESTAR DEB, 2432

Orbit data source: Space-Track

THOR ABLESTAR DEB, 2432 is space debris in LEO originally from a launch on Thu, 05 Dec 1963 UTC launched from the Air Force Western Test Range (AFWTR). Debris objects in space refer to the collection of defunct objects orbiting the Earth. Examples of debris include non-operational satellites, rocket bodies, and fragments generated from explosions, collisions, or faulty payload assembly.

Loading next visibility...
THOR ABLESTAR DEB details
Identifier
2432, 1963-049G
Orbit
LEO
Last TLE update10 hours ago
Origin
Flag of USUSN NAVAIR (US)
ManufacturerUnknown
MissionSpacecraft
Bus & MotorUnknown
MassUnknown
Launch date (UTC)
1963-12-05 (61 years ago)
Launch vehicleUnknown
Launch site
Air Force Western Test Range (AFWTR)
Object type
Payload
Rocket body
Debris
Shape & HBRUnknown
Radar Cross SectionMedium (>0.1 m² and <1 m²)

Expand to show TLE details & history

TLE from 10 hours ago
0 THOR ABLESTAR DEB
1  2432U 63049G   25037.66621272  .00000148  00000-0  22376-3 0  9998
2  2432  89.9117  74.7701 0032946 219.1997 264.3772 13.48153630  6399
Epoch: 2025-02-06T15:59Z
Definitive object data (Epoch: 2025-02-06T15:59:20.778Z)
Latitude56.89132°
Longitude-122.24071°
Altitude1,091.152 km
Speed7.311 km/s
True Right ascension16h 58m 32s
True Declination56° 44' 27"
Sunlit
Object was in daylight at TLE epoch
Visualization TLE readout
Latitude-14.33056°
Longitude57.86786°
Altitude1,100.006 km
Speed7.294 km/s
Apparent Right ascension06h 32m 07s
Apparent Declination-65° 35' 26"
Sunlit
Object is in daylight
Visualization observer readout
Local Sidereal Time04:08:57
Azimuth165.181° S
Elevation-19.099°
Doppler factor1
Orbital elements
Apogee altitude1,100.671 km
Perigee altitude1,051.553 km
Semi-major axis7,454.249 km
Eccentricity0.0032946
Inclination89.9117°
RAAN74.7701°
Arg. of periapsis219.1997°
True anomaly264.00164°
Mean anomaly264.3772°
Eccentric anomaly264.1894°
Mean motion3.37239 °/min
BSTAR0.00022376
Orbital period106.75 mins
Loading maneuver chart data...
Loading historical data...
Loading historical data...
Loading historical data...
Loading historical data...
Loading historical data...
Loading historical data...
Loading historical data...

THOR ABLESTAR DEB Visibility forecast

Observer location: undefined°, undefined

Span
Click to sort rows by Start time (UTC) header in descending order
Start Az.
Max El. time (UTC)
Max El. Az.
Max El.
End time (UTC)
End Az.
12 mins2025-02-07 02:09:37.818Z154.279° SSE2025-02-07 02:15:37.818Z91.317° ESE37.732°2025-02-07 02:21:37.818Z10.588° NNE
9 mins2025-02-07 03:58:37.818Z232.119° WSW2025-02-07 04:02:37.818Z275.643° WNW23.712°2025-02-07 04:07:37.818Z329.192° NNW
8 mins2025-02-07 13:22:37.818Z37.823° NE2025-02-07 13:26:37.818Z80.45° E20.665°2025-02-07 13:30:37.818Z122.649° SE
11 mins2025-02-07 15:08:37.818Z350.272° N2025-02-07 15:13:37.818Z276.535° WNW40.249°2025-02-07 15:19:37.818Z201.515° SSW
8 mins2025-02-08 01:22:37.818Z110.186° ESE2025-02-08 01:25:37.818Z77.652° E21.343°2025-02-08 01:30:37.818Z27.25° NE
|